Regional Weather Roundup
Issued by NWS

Home | Current Version | Previous Version | Graphics & Text | Print | Product List | Glossary Off
Versions: 1 2 3 4 5 6 7 8 9 10 11 12 13 14 15 16 17 18 19 20 21 22 23 24 25 26 27

000
ASUS45 KSLC 271410
RWRUT

UTAH REGIONAL WEATHER ROUNDUP
NATIONAL WEATHER SERVICE SALT LAKE CITY UT
800 AM MDT SAT MAY 27 2017

UTZ001>011-023>025-271500-

NORTHERN UTAH

CITY           SKY/WX    TMP DP  RH WIND       PRES   REMARKS
BRIGHAM CITY   SUNNY     47  37  66 CALM      30.20R
HILL AFB       SUNNY     47  36  64 E10       30.19R
LOGAN          SUNNY     45  39  79 CALM      30.21R
OGDEN          SUNNY     48  36  63 SE7       30.19R
SALT LAKE CITY MOSUNNY   52  40  63 W3        30.19R
TOOELE VALLEY  SUNNY     50  41  71 CALM      30.20R
WENDOVER       SUNNY     53  37  54 CALM      30.21R
HEBER CITY     SUNNY     45  34  65 CALM      30.19R
WEST JORDAN    SUNNY     49  45  85 NW8       30.20R

$$

UTZ011>015-024>027-271500-

CENTRAL/NORTHEAST UTAH

CITY           SKY/WX    TMP DP  RH WIND       PRES   REMARKS
PROVO AIRPORT  SUNNY     51  37  58 CALM      30.19R
MOAB/CANYONLAN CLOUDY    62  27  26 SW9       30.05R
DELTA          SUNNY     50  36  57 N5        30.17S
PRICE          SUNNY     52  32  46 NW9       30.12R
ROOSEVELT      CLOUDY    50  36  57 SW6       30.14R
VERNAL         PTSUNNY   55  33  43 NE16      30.11R

$$

UTZ013>016-019>022-027-271500-

SOUTHERN UTAH

CITY           SKY/WX    TMP DP  RH WIND       PRES   REMARKS
BRYCE CANYON   SUNNY     47  30  51 N15       30.21R
CEDAR CITY     SUNNY     47  32  56 CALM      30.15R
MILFORD        SUNNY     54  36  50 N13       30.15R
ST GEORGE      SUNNY     67  35  30 VRB3      30.03R
HANKSVILLE     MOSUNNY   61  32  33 N7        30.11R
BLANDING       SUNNY     59  29  31 N9        30.16S

$$

REGIONAL REPORTS     COLORADO/ARIZONA

CITY           SKY/WX    TMP DP  RH WIND       PRES   REMARKS
CRAIG, CO      CLOUDY    45  40  82 NE3       30.15R
GRAND JUNCTION CLOUDY    58  38  47 SW3       30.07R
RIFLE, CO      CLOUDY    53  38  56 W6        30.10R
MONTROSE, CO   PTSUNNY   55  34  45 SE3       30.13R
CORTEZ, CO     SUNNY     53  29  39 CALM      30.10R
COLORADO CITY    N/A     63  34  34 NE7       30.12R
PAGE, AZ       SUNNY     64  35  34 W5        30.06R
GRAND CANYON   SUNNY     48  29  47 CALM      30.18R
KINGMAN, AZ    SUNNY     66  34  30 SE7       30.01R
FLAGSTAFF, AZ  SUNNY     51  27  39 CALM      30.19R

$$

REGIONAL REPORTS    NEVADA/IDAHO/WYOMING

CITY           SKY/WX    TMP DP  RH WIND       PRES   REMARKS
LAS VEGAS, NV  SUNNY     74  28  18 CALM      29.95R
ELY, NY        SUNNY     40  26  57 S5        30.22R
ELKO, NV       SUNNY     41  34  76 CALM      30.22R
POCATELLO, ID  MOSUNNY   43  42  97 SW7       30.22R
BURLEY, ID     SUNNY     45  41  86 E3        30.19R
EVANSTON, WY   CLOUDY    39  35  86 N6        30.23R WCI  35
ROCK SPRINGS,  CLOUDY    41  36  82 CALM      30.19R
KEMMERER, WY     N/A     39  32  75 CALM      30.21R

$$




USA.gov is the U.S. government's official web portal to all federal, state and local government web resources and services.